GW3504 Weather Reports


Display with metric or nautical units.
time (UTC)temp
F
wind
direction
speed
MPH
gust
MPH
rain 1hr
in
rain 24hr
in
rain mn
in
humidity
%
barometer
mb
20240301010523 48 191 4.0 11.0 0.00 0.00 0.00 15 1020.9
20240301010034 48 162 4.0 11.0 0.00 0.00 0.00 15 1020.8
20240301005523 48 163 4.0 10.0 0.00 0.00 0.00 15 1020.9
20240301005021 48 171 4.0 10.0 0.00 0.00 0.00 15 1020.8
20240301004532 48 165 5.0 10.0 0.00 0.00 0.00 15 1020.9
20240301004023 49 146 4.0 12.0 0.00 0.00 0.00 14 1021.0
20240301003524 49 149 3.0 12.0 0.00 0.00 0.00 15 1021.0
20240301003027 49 160 4.0 11.0 0.00 0.00 0.00 14 1020.9
20240301002523 49 207 4.0 11.0 0.00 0.00 0.00 14 1020.9
20240301002023 50 221 4.0 8.0 0.00 0.00 0.00 13 1020.9
20240301001526 50 199 3.0 8.0 0.00 0.00 0.00 13 1020.9
20240301001024 50 139 3.0 12.0 0.00 0.00 0.00 13 1020.8
20240301000522 50 181 4.0 12.0 0.00 0.00 0.00 12 1020.8
20240301000028 51 205 6.0 11.0 0.00 0.00 0.00 12 1020.9
20240229235524 51 228 4.0 14.0 0.00 0.00 0.00 12 1020.9
20240229235022 51 170 5.0 14.0 0.00 0.00 0.00 11 1020.9
20240229234534 51 202 5.0 12.0 0.00 0.00 0.00 12 1021.0
20240229234021 52 149 4.0 9.0 0.00 0.00 0.00 11 1021.1
20240229233521 52 255 4.0 10.0 0.00 0.00 0.00 10 1021.0
20240229233047 52 176 3.0 12.0 0.00 0.00 0.00 10 1021.1
20240229232526 53 162 4.0 12.0 0.00 0.00 0.00 10 1021.2
20240229232027 52 185 4.0 13.0 0.00 0.00 0.00 11 1021.2
20240229231531 52 224 5.0 16.0 0.00 0.00 0.00 10 1021.3
20240229231021 52 141 5.0 17.0 0.00 0.00 0.00 10 1021.2
20240229230523 52 152 6.0 17.0 0.00 0.00 0.00 10 1021.1
20240229230029 52 226 6.0 17.0 0.00 0.00 0.00 9 1021.2
20240229225523 53 184 5.0 15.0 0.00 0.00 0.00 9 1021.2
20240229225024 53 204 6.0 19.0 0.00 0.00 0.00 8 1021.3
20240229224523 53 170 8.0 19.0 0.00 0.00 0.00 8 1021.2
20240229224027 54 202 7.0 19.0 0.00 0.00 0.00 8 1021.4
20240229223524 54 193 4.0 16.0 0.00 0.00 0.00 8 1021.4
20240229223029 54 199 7.0 16.0 0.00 0.00 0.00 7 1021.4
20240229222523 54 124 8.0 16.0 0.00 0.00 0.00 8 1021.3
20240229222024 54 209 6.0 15.0 0.00 0.00 0.00 9 1021.4
20240229221525 54 214 6.0 17.0 0.00 0.00 0.00 8 1021.4
20240229221025 54 207 7.0 20.0 0.00 0.00 0.00 8 1021.6
20240229220524 55 247 10.0 23.0 0.00 0.00 0.00 7 1021.7
20240229220045 55 129 7.0 23.0 0.00 0.00 0.00 8 1021.7
20240229215525 55 192 9.0 20.0 0.00 0.00 0.00 7 1021.8
20240229215024 55 223 10.0 20.0 0.00 0.00 0.00 7 1021.8
20240229214524 56 203 5.0 18.0 0.00 0.00 0.00 6 1021.8
20240229214024 56 178 8.0 18.0 0.00 0.00 0.00 6 1021.9
20240229213524 55 172 7.0 19.0 0.00 0.00 0.00 6 1021.9
20240229213024 56 274 5.0 19.0 0.00 0.00 0.00 7 1021.9
20240229212531 55 219 6.0 19.0 0.00 0.00 0.00 7 1021.9
20240229212028 55 246 5.0 16.0 0.00 0.00 0.00 8 1022.0
20240229211525 55 207 5.0 22.0 0.00 0.00 0.00 7 1021.9
20240229211024 55 182 8.0 22.0 0.00 0.00 0.00 8 1022.1
20240229210526 56 152 7.0 18.0 0.00 0.00 0.00 8 1022.0
20240229210044 55 200 6.0 16.0 0.00 0.00 0.00 10 1022.1
20240229205522 54 190 7.0 18.0 0.00 0.00 0.00 10 1022.2
20240229205028 53 220 8.0 18.0 0.00 0.00 0.00 10 1022.3
20240229204538 53 203 4.0 20.0 0.00 0.00 0.00 10 1022.5
20240229204021 53 219 9.0 20.0 0.00 0.00 0.00 11 1022.7
20240229203521 53 192 8.0 18.0 0.00 0.00 0.00 10 1022.8
20240229203026 53 155 7.0 16.0 0.00 0.00 0.00 10 1022.9
20240229202521 52 150 6.0 16.0 0.00 0.00 0.00 11 1023.0
20240229202021 52 162 7.0 20.0 0.00 0.00 0.00 12 1023.1
20240229201542 52 188 5.0 20.0 0.00 0.00 0.00 12 1023.1
20240229201021 52 248 7.0 20.0 0.00 0.00 0.00 11 1023.4
20240229200524 52 190 6.0 17.0 0.00 0.00 0.00 11 1023.6
20240229200046 53 125 9.0 19.0 0.00 0.00 0.00 10 1023.6
20240229195524 53 243 8.0 19.0 0.00 0.00 0.00 9 1023.6
20240229195021 54 230 10.0 18.0 0.00 0.00 0.00 9 1023.7
20240229194530 55 194 6.0 21.0 0.00 0.00 0.00 10 1023.9
20240229194021 55 227 10.0 21.0 0.00 0.00 0.00 9 1023.9
20240229193524 54 216 9.0 21.0 0.00 0.00 0.00 10 1023.9
20240229193035 54 139 9.0 21.0 0.00 0.00 0.00 10 1024.0
20240229192525 54 162 5.0 22.0 0.00 0.00 0.00 10 1024.1
20240229192021 54 200 4.0 22.0 0.00 0.00 0.00 11 1024.1
20240229191528 54 139 9.0 17.0 0.00 0.00 0.00 11 1024.3
20240229191024 54 139 9.0 17.0 0.00 0.00 0.00 10 1024.2
20240229190525 54 223 5.0 16.0 0.00 0.00 0.00 10 1024.3
20240229190025 54 225 7.0 19.0 0.00 0.00 0.00 10 1024.3
20240229185525 54 134 7.0 19.0 0.00 0.00 0.00 11 1024.3
20240229185024 53 159 8.0 16.0 0.00 0.00 0.00 10 1024.5
20240229184532 53 153 6.0 16.0 0.00 0.00 0.00 11 1024.6
20240229184021 52 115 7.0 20.0 0.00 0.00 0.00 13 1024.6
20240229183527 52 141 8.0 20.0 0.00 0.00 0.00 13 1024.8
20240229183028 52 178 7.0 17.0 0.00 0.00 0.00 13 1024.9
20240229182524 52 139 7.0 18.0 0.00 0.00 0.00 13 1025.0
20240229182023 51 134 6.0 18.0 0.00 0.00 0.00 15 1025.1
20240229181525 52 230 8.0 21.0 0.00 0.00 0.00 13 1025.2
20240229181024 51 125 7.0 21.0 0.00 0.00 0.00 15 1025.3
20240229180523 51 158 8.0 20.0 0.00 0.00 0.00 14 1025.4
20240229180034 51 103 7.0 20.0 0.00 0.00 0.00 14 1025.5
20240229175522 51 232 6.0 15.0 0.00 0.00 0.00 14 1025.5
20240229175024 51 133 5.0 18.0 0.00 0.00 0.00 14 1025.6
20240229174527 51 161 5.0 18.0 0.00 0.00 0.00 14 1025.6
20240229174025 50 182 4.0 15.0 0.00 0.00 0.00 15 1025.7
20240229173523 50 248 6.0 15.0 0.00 0.00 0.00 13 1025.7
20240229173025 50 238 5.0 17.0 0.00 0.00 0.00 16 1025.8
20240229172524 49 217 4.0 17.0 0.00 0.00 0.00 16 1025.8
20240229172023 49 249 8.0 17.0 0.00 0.00 0.00 15 1025.9
20240229171534 49 175 8.0 15.0 0.00 0.00 0.00 16 1025.9
20240229171022 49 120 5.0 17.0 0.00 0.00 0.00 17 1026.0
20240229170527 49 210 6.0 17.0 0.00 0.00 0.00 17 1026.0
20240229170028 48 230 5.0 16.0 0.00 0.00 0.00 17 1026.1
20240229165524 48 238 8.0 16.0 0.00 0.00 0.00 17 1026.2
20240229165022 48 169 5.0 15.0 0.00 0.00 0.00 18 1026.3
20240229164527 48 266 6.0 15.0 0.00 0.00 0.00 19 1026.3
20240229164021 48 217 5.0 15.0 0.00 0.00 0.00 20 1026.5
20240229163524 47 302 4.0 14.0 0.00 0.00 0.00 19 1026.5
20240229163033 47 201 6.0 13.0 0.00 0.00 0.00 18 1026.6
20240229162525 47 226 5.0 12.0 0.00 0.00 0.00 20 1026.7
20240229162022 46 231 5.0 13.0 0.00 0.00 0.00 22 1026.7
20240229161531 46 259 3.0 13.0 0.00 0.00 0.00 23 1026.8
20240229161024 45 195 4.0 13.0 0.00 0.00 0.00 23 1026.9
20240229160521 45 209 5.0 12.0 0.00 0.00 0.00 25 1026.9
20240229160025 44 235 5.0 13.0 0.00 0.00 0.00 25 1027.0
20240229155525 43 248 5.0 13.0 0.00 0.00 0.00 27 1027.1
20240229155021 43 187 6.0 13.0 0.00 0.00 0.00 27 1027.2
20240229154526 42 218 3.0 17.0 0.00 0.00 0.00 28 1027.3
20240229154024 42 255 4.0 17.0 0.00 0.00 0.00 29 1027.3
20240229153528 41 168 3.0 10.0 0.00 0.00 0.00 29 1027.4
20240229153029 41 245 3.0 12.0 0.00 0.00 0.00 30 1027.4
20240229152525 40 128 3.0 15.0 0.00 0.00 0.00 31 1027.4
20240229152021 39 212 6.0 15.0 0.00 0.00 0.00 31 1027.6
20240229151528 39 196 6.0 14.0 0.00 0.00 0.00 31 1027.6
20240229151026 39 237 6.0 14.0 0.00 0.00 0.00 31 1027.7
20240229150523 38 222 5.0 14.0 0.00 0.00 0.00 31 1027.8
20240229150033 38 225 2.0 10.0 0.00 0.00 0.00 33 1027.8
20240229145522 37 276 3.0 10.0 0.00 0.00 0.00 33 1027.9
20240229145025 37 241 5.0 16.0 0.00 0.00 0.00 34 1027.9
20240229144527 36 212 5.0 16.0 0.00 0.00 0.00 34 1028.0
20240229144022 36 268 3.0 11.0 0.00 0.00 0.00 36 1027.9
20240229143524 35 220 6.0 11.0 0.00 0.00 0.00 36 1027.9
20240229143033 35 149 4.0 11.0 0.00 0.00 0.00 37 1028.0
20240229142522 34 230 5.0 12.0 0.00 0.00 0.00 37 1027.9
20240229142020 33 217 5.0 12.0 0.00 0.00 0.00 38 1027.8
20240229141526 33 221 4.0 11.0 0.00 0.00 0.00 38 1027.7
20240229141023 33 243 3.0 11.0 0.00 0.00 0.00 39 1027.8
20240229140524 32 179 4.0 11.0 0.00 0.00 0.00 40 1027.6
20240229140023 32 177 4.0 10.0 0.00 0.00 0.00 40 1027.7
20240229135524 31 198 4.0 8.0 0.00 0.00 0.00 41 1027.7
20240229135021 31 221 3.0 8.0 0.00 0.00 0.00 42 1027.7
20240229134529 31 177 3.0 8.0 0.00 0.00 0.00 42 1027.8
20240229134024 31 224 3.0 8.0 0.00 0.00 0.00 43 1028.0
20240229133523 30 162 3.0 7.0 0.00 0.00 0.00 43 1027.8
20240229133022 30 169 3.0 9.0 0.00 0.00 0.00 43 1027.8
20240229132524 29 198 3.0 9.0 0.00 0.00 0.00 44 1027.9
20240229132024 29 195 2.0 8.0 0.00 0.00 0.00 44 1028.0
20240229131524 29 158 3.0 8.0 0.00 0.00 0.00 44 1028.0
20240229131024 29 205 2.0 6.0 0.00 0.00 0.00 44 1027.9
20240229130523 29 211 3.0 9.0 0.00 0.00 0.00 44 1027.8
20240229130025 29 220 3.0 9.0 0.00 0.00 0.00 44 1027.7
20240229125526 29 193 3.0 8.0 0.00 0.00 0.00 45 1027.7
20240229125024 29 173 3.0 8.0 0.00 0.00 0.00 45 1027.8
20240229124526 29 186 3.0 8.0 0.00 0.00 0.00 45 1027.8
20240229124023 29 218 3.0 8.0 0.00 0.00 0.00 45 1027.9
20240229123525 29 215 2.0 7.0 0.00 0.00 0.00 45 1027.8
20240229123024 29 192 3.0 6.0 0.00 0.00 0.00 44 1027.9
20240229122524 29 195 3.0 6.0 0.00 0.00 0.00 44 1027.9
20240229122022 29 193 2.0 7.0 0.00 0.00 0.00 44 1028.0
20240229121526 29 198 1.0 7.0 0.00 0.00 0.00 44 1027.8
20240229121024 29 176 2.0 10.0 0.00 0.00 0.00 44 1027.8
20240229120523 29 212 2.0 10.0 0.00 0.00 0.00 43 1027.8
20240229120025 29 219 3.0 9.0 0.00 0.00 0.00 43 1027.8
20240229115523 29 269 3.0 8.0 0.00 0.00 0.00 43 1028.0
20240229115024 29 188 3.0 8.0 0.00 0.00 0.00 44 1028.2
20240229114530 29 206 1.0 11.0 0.00 0.00 0.00 44 1028.1
20240229114027 29 201 4.0 11.0 0.00 0.00 0.00 43 1028.0
20240229113521 29 212 3.0 7.0 0.00 0.00 0.00 43 1028.1
20240229113026 29 212 3.0 8.0 0.00 0.00 0.00 43 1028.2
20240229112521 29 215 3.0 8.0 0.00 0.00 0.00 43 1028.3
20240229112024 29 212 3.0 9.0 0.00 0.00 0.00 42 1028.2
20240229111527 29 226 3.0 9.0 0.00 0.00 0.00 42 1028.1
20240229111023 29 175 3.0 8.0 0.00 0.00 0.00 42 1028.1
20240229110524 29 240 2.0 6.0 0.00 0.00 0.00 42 1028.1
20240229110024 29 243 2.0 6.0 0.00 0.00 0.00 42 1027.9
20240229105527 29 226 1.0 8.0 0.00 0.00 0.00 42 1027.9
20240229105024 29 211 3.0 8.0 0.00 0.00 0.00 41 1027.7
20240229104545 29 244 3.0 8.0 0.00 0.00 0.00 41 1027.7
20240229104021 29 181 3.0 8.0 0.00 0.00 0.00 41 1027.7
20240229103524 29 195 4.0 8.0 0.00 0.00 0.00 40 1027.7
20240229103032 29 209 2.0 6.0 0.00 0.00 0.00 41 1027.6
20240229102521 29 262 3.0 8.0 0.00 0.00 0.00 40 1027.6
20240229102026 29 194 2.0 10.0 0.00 0.00 0.00 41 1027.6
20240229101528 29 224 4.0 10.0 0.00 0.00 0.00 41 1027.6
20240229101024 29 228 2.0 9.0 0.00 0.00 0.00 41 1027.5
20240229100523 29 183 2.0 9.0 0.00 0.00 0.00 41 1027.6
20240229100040 29 158 2.0 10.0 0.00 0.00 0.00 41 1027.6
20240229095524 29 165 4.0 10.0 0.00 0.00 0.00 41 1027.7
20240229095023 29 227 3.0 8.0 0.00 0.00 0.00 42 1027.8
20240229094527 29 195 2.0 8.0 0.00 0.00 0.00 42 1027.8
20240229094023 29 226 3.0 8.0 0.00 0.00 0.00 42 1027.8
20240229093524 29 226 2.0 8.0 0.00 0.00 0.00 42 1027.8
20240229093034 29 147 4.0 8.0 0.00 0.00 0.00 41 1027.8
20240229092524 29 169 3.0 7.0 0.00 0.00 0.00 41 1027.7
20240229092024 29 180 3.0 7.0 0.00 0.00 0.00 41 1027.7
20240229091538 29 201 3.0 7.0 0.00 0.00 0.00 40 1027.7
20240229091021 29 220 3.0 9.0 0.00 0.00 0.00 40 1027.8
20240229090523 29 164 4.0 10.0 0.00 0.00 0.00 40 1027.7
20240229090027 29 163 4.0 10.0 0.00 0.00 0.00 39 1027.7
20240229085521 30 187 3.0 9.0 0.00 0.00 0.00 39 1027.8
20240229085024 29 191 3.0 9.0 0.00 0.00 0.00 39 1027.7
20240229084528 29 238 2.0 6.0 0.00 0.00 0.00 39 1027.7
20240229084023 29 178 3.0 7.0 0.00 0.00 0.00 39 1027.5
20240229083524 29 179 3.0 7.0 0.00 0.00 0.00 39 1027.5
20240229083037 29 172 3.0 9.0 0.00 0.00 0.00 39 1027.5
20240229082524 29 162 4.0 9.0 0.00 0.00 0.00 40 1027.7
20240229082024 29 127 4.0 9.0 0.00 0.00 0.00 40 1027.7
20240229081527 28 176 4.0 7.0 0.00 0.00 0.00 41 1027.8
20240229081025 28 159 4.0 7.0 0.00 0.00 0.00 41 1028.0
20240229080523 28 208 1.0 3.0 0.00 0.00 0.00 40 1028.0
20240229080036 28 197 1.0 3.0 0.00 0.00 0.00 41 1028.1
20240229075524 28 160 1.0 3.0 0.00 0.00 0.00 41 1028.1
20240229075023 28 156 1.0 3.0 0.00 0.00 0.00 41 1028.2
20240229074536 28 187 1.0 7.0 0.00 0.00 0.00 40 1028.4
20240229074023 29 198 2.0 7.0 0.00 0.00 0.00 40 1028.4
20240229073524 28 221 3.0 7.0 0.00 0.00 0.00 40 1028.4
20240229073028 28 268 2.0 5.0 0.00 0.00 0.00 41 1028.5
20240229072525 27 208 2.0 5.0 0.00 0.00 0.00 42 1028.5
20240229072027 27 148 1.0 3.0 0.00 0.00 0.00 42 1028.5
20240229071526 27 152 0.0 3.0 0.00 0.00 0.00 42 1028.6
20240229071025 28 174 0.0 5.0 0.00 0.00 0.00 42 1028.5
20240229070528 28 235 1.0 5.0 0.00 0.00 0.00 41 1028.5
20240229070022 28 229 2.0 4.0 0.00 0.00 0.00 41 1028.3
20240229065524 28 203 2.0 3.0 0.00 0.00 0.00 41 1028.2
20240229065024 28 210 1.0 2.0 0.00 0.00 0.00 41 1028.1
20240229064525 27 142 0.0 2.0 0.00 0.00 0.00 41 1028.0
20240229064024 27 162 0.0 2.0 0.00 0.00 0.00 42 1028.1
20240229063523 28 205 0.0 2.0 0.00 0.00 0.00 41 1028.1
20240229063024 28 200 0.0 2.0 0.00 0.00 0.00 40 1028.1
20240229062521 28 212 0.0 2.0 0.00 0.00 0.00 40 1028.0
20240229062025 28 201 0.0 2.0 0.00 0.00 0.00 40 1028.0
20240229061526 28 165 0.0 3.0 0.00 0.00 0.00 40 1028.0
20240229061022 28 0 0.0 3.0 0.00 0.00 0.00 41 1028.1
20240229060524 27 128 1.0 2.0 0.00 0.00 0.00 40 1028.0
20240229060036 27 162 0.0 2.0 0.00 0.00 0.00 41 1027.9
20240229055524 27 143 0.0 2.0 0.00 0.00 0.00 41 1028.0
20240229055023 28 146 1.0 2.0 0.00 0.00 0.00 40 1028.2
20240229054531 28 155 0.0 2.0 0.00 0.00 0.00 40 1028.0
20240229054023 28 143 0.0 2.0 0.00 0.00 0.00 40 1027.9
20240229053527 27 137 0.0 2.0 0.00 0.00 0.00 40 1028.0
20240229053032 27 135 0.0 1.0 0.00 0.00 0.00 41 1028.2
20240229052524 28 0 0.0 1.0 0.00 0.00 0.00 40 1028.2
20240229052030 28 0 0.0 1.0 0.00 0.00 0.00 39 1028.1
20240229051526 28 0 0.0 1.0 0.00 0.00 0.00 40 1028.1
20240229051027 27 0 0.0 1.0 0.00 0.00 0.00 41 1028.1
20240229050526 27 179 0.0 1.0 0.00 0.00 0.00 40 1028.3
20240229050033 27 0 0.0 0.0 0.00 0.00 0.00 40 1028.3
20240229045524 28 0 0.0 0.0 0.00 0.00 0.00 40 1028.4
20240229045022 28 0 0.0 0.0 0.00 0.00 0.00 40 1028.5
20240229044528 28 0 0.0 0.0 0.00 0.00 0.00 41 1028.6
20240229044022 28 162 0.0 1.0 0.00 0.00 0.00 40 1028.6
20240229043522 28 0 0.0 1.0 0.00 0.00 0.00 39 1028.5
20240229043049 28 0 0.0 0.0 0.00 0.00 0.00 40 1028.5
20240229042522 28 0 0.0 0.0 0.00 0.00 0.00 41 1028.6
20240229042024 28 0 0.0 0.0 0.00 0.00 0.00 40 1028.7
20240229041525 28 0 0.0 0.0 0.00 0.00 0.00 40 1028.7
20240229041024 28 0 0.0 0.0 0.00 0.00 0.00 39 1028.6
20240229040524 29 0 0.0 0.0 0.00 0.00 0.00 39 1028.6
20240229040037 29 0 0.0 2.0 0.00 0.00 0.00 39 1028.6
20240229035524 29 0 0.0 3.0 0.00 0.00 0.00 38 1028.6
20240229035023 29 0 0.0 3.0 0.00 0.00 0.00 38 1028.6
20240229034526 29 152 1.0 3.0 0.00 0.00 0.00 38 1028.6
20240229034024 29 140 0.0 3.0 0.00 0.00 0.00 38 1028.7
20240229033522 29 137 0.0 1.0 0.00 0.00 0.00 39 1028.7
20240229033025 29 142 0.0 1.0 0.00 0.00 0.00 38 1028.6
20240229032522 29 125 0.0 1.0 0.00 0.00 0.00 39 1028.6
20240229032023 29 0 0.0 1.0 0.00 0.00 0.00 38 1028.7
20240229031526 29 107 0.0 1.0 0.00 0.00 0.00 38 1028.7
20240229031022 30 128 0.0 1.0 0.00 0.00 0.00 38 1028.6
20240229030523 30 128 0.0 1.0 0.00 0.00 0.00 38 1028.8
20240229030033 30 0 0.0 2.0 0.00 0.00 0.00 37 1028.9
20240229025524 30 0 0.0 2.0 0.00 0.00 0.00 36 1028.8
20240229025025 30 146 0.0 2.0 0.00 0.00 0.00 36 1028.6
20240229024525 30 127 0.0 1.0 0.00 0.00 0.00 37 1028.6
20240229024024 30 145 0.0 2.0 0.00 0.00 0.00 36 1028.7
20240229023524 30 146 0.0 2.0 0.00 0.00 0.00 36 1028.6
20240229023036 30 0 0.0 2.0 0.00 0.00 0.00 35 1028.4
20240229022522 30 129 0.0 1.0 0.00 0.00 0.00 35 1028.5
20240229022024 30 139 0.0 1.0 0.00 0.00 0.00 35 1028.4
20240229021533 30 0 0.0 1.0 0.00 0.00 0.00 37 1028.6
20240229021022 31 0 0.0 1.0 0.00 0.00 0.00 36 1028.5
20240229020521 31 0 0.0 1.0 0.00 0.00 0.00 35 1028.6
20240229020034 31 0 0.0 1.0 0.00 0.00 0.00 36 1028.7
20240229015522 31 0 0.0 0.0 0.00 0.00 0.00 36 1028.6
20240229015022 31 0 0.0 0.0 0.00 0.00 0.00 35 1028.6
20240229014534 31 0 0.0 0.0 0.00 0.00 0.00 36 1028.4
20240229014024 31 0 0.0 0.0 0.00 0.00 0.00 35 1028.4
20240229013524 31 0 0.0 0.0 0.00 0.00 0.00 35 1028.5
20240229013030 31 0 0.0 0.0 0.00 0.00 0.00 35 1028.4
20240229012525 31 0 0.0 0.0 0.00 0.00 0.00 35 1028.4
20240229012024 31 0 0.0 0.0 0.00 0.00 0.00 33 1028.4
20240229011529 32 0 0.0 0.0 0.00 0.00 0.00 33 1028.5
20240229011022 32 0 0.0 0.0 0.00 0.00 0.00 34 1028.4